Orbital Elements at Epoch 2459000.5 (2020-May-31.0) TDB
Reference: JPL 24 (heliocentric ecliptic J2000)
Element | Value | Uncertainty (1-sigma) | Units |
e | .09812210292407779 | 3.0013e-08 | |
a | 3.148124727838236 | 1.6986e-08 | au |
q | 2.839224109275458 | 1.0046e-07 | au |
i | 5.966130917847594 | 4.1522e-06 | deg |
node | 156.4651018167487 | 3.1344e-05 | deg |
peri | 312.4056853455832 | 3.8188e-05 | deg |
M | 261.3755341000528 | 2.2705e-05 | deg |
tp | 2459559.431371714811 (2021-Dec-10.93137171) | 0.00012991 | TDB |
period | 2040.216816195095 5.59 | 1.6512e-05 4.521e-08 | d yr |
n | .1764518345022675 | 1.4281e-09 | deg/d |
Q | 3.457025346401014 | 1.8653e-08 | au |
|
| | Orbit Determination Parameters
Additional Information
|